Location: Kielce
(50.8833°N, 20.6167°E)
Time: 22:17:37
(UTC+02:00)

SR - Pass Details

Date: 29 April 2021
Orbit: 573 x 882 km, 66.7° (Epoch: 09 May)

Event Time Altitude Azimuth Distance (km) Brightness Sun altitude
Rises 09:40:10 0° 291° (WNW) 3,471 ? 39.5°
Reaches altitude 10° 09:43:34 10° 310° (NW) 2,547 ? 40.0°
Maximum altitude 09:47:28 18° 352° (N) 2,051 ? 40.5°
Drops below altitude 10° 09:51:21 10° 33° (NNE) 2,528 ? 41.1°
Sets 09:54:43 0° 53° (NE) 3,434 ? 41.5°
